Location: Brunembert
(50.7122°N, 1.8935°E)
Time: 03:14:26
(UTC+00:00)

Cosmos 1741 Rocket - Pass Details

Date: 22 April 2021
Orbit: 762 x 782 km, 74.0° (Epoch: 06 May)

Event Time Altitude Azimuth Distance (km) Brightness Sun altitude
Exits shadow 22:05:12 42° 202° (SSW) 1,092 4.5 -22.7°
Maximum altitude 22:07:02 89° 112° (ESE) 783 3.9 -22.8°
Drops below altitude 10° 22:12:21 10° 25° (NNE) 2,329 7.0 -23.2°
Sets 22:14:44 0° 25° (NNE) 3,257 7.8 -23.4°
